Probability
13 3 0 13 10 6 0 0 0 0 0 3 3 10 13 16 13 6 13 52 81 90 100 100 100 100 100 100 100 100 100 100 100 100 100 100 100 100 100 100 100 97 97 97 97 97 97 97 94
0 0 6 10 3 0 0 0 0 0 3 3 3 10 23 42 42 39 39 74 87 100 100 100 100 100 100 100 100 100 100 100 100 100 100 100 100 100 100 100 97 97 97 97 97 97 97 97 97
3 6 10 10 6 0 0 0 0 0 6 6 6 16 26 39 58 45 52 77 84 94 100 100 100 100 100 100 100 100 100 100 100 100 100 100 100 100 100 100 97 97 97 97 97 97 97 97 97
3 3 3 6 3 0 0 0 0 0 3 10 13 29 23 55 65 52 58 71 87 94 100 100 100 100 100 100 100 100 100 100 100 100 100 100 100 100 100 100 97 97 97 97 97 94 97 90 94
0 3 0 0 0 0 0 0 3 3 6 10 26 39 42 58 58 58 65 77 90 97 100 100 100 100 100 100 100 100 100 100 100 100 100 100 100 100 100 100 97 97 97 97 97 97 97 94 90
0 0 0 0 0 0 0 3 3 10 16 23 26 35 35 48 55 61 81 81 90 100 100 100 100 100 100 100 100 100 100 100 100 100 100 100 97 100 100 100 97 97 97 97 97 97 94 90 100
0 0 0 0 0 3 3 3 10 13 16 19 29 29 32 48 55 71 77 84 90 100 100 100 100 100 100 100 100 100 100 100 100 100 100 100 100 100 100 97 94 94 90 90 94 90 87 87 94
0 0 0 0 0 0 0 0 6 10 29 23 32 23 32 35 61 71 87 87 87 100 100 100 100 100 100 100 100 100 100 100 100 100 100 100 100 100 97 97 97 94 87 87 77 77 81 84 87
0 0 0 0 0 0 3 3 6 13 32 32 35 29 29 45 58 77 87 87 94 97 97 94 94 97 97 97 100 100 100 100 100 100 100 100 94 90 97 94 94 84 87 81 74 74 71 81 74
0 0 0 0 0 0 3 3 3 13 29 42 35 29 26 42 68 84 87 87 90 94 87 87 90 90 94 97 100 100 100 100 97 97 97 65 55 61 74 94 94 87 84 74 77 71 74 35 3
0 0 0 0 0 3 3 3 3 19 32 35 32 32 29 35 58 77 90 94 71 77 84 87 87 87 84 90 90 87 87 90 71 74 65 42 42 61 48 65 71 65 61 35 55 52 32 19 3
0 0 0 0 0 3 3 3 3 13 26 29 39 32 32 26 45 61 71 81 77 71 77 81 84 81 71 74 84 68 65 55 58 58 52 42 32 26 26 35 29 23 19 10 16 6 3 3 0
0 0 0 0 0 3 6 6 6 16 29 35 42 42 29 26 35 42 61 74 61 55 68 71 74 71 61 58 48 58 55 52 52 55 48 39 29 19 19 19 13 16 16 13 10 10 6 6 0
0 0 0 3 3 3 3 13 19 16 26 45 45 42 39 42 35 48 58 61 58 52 58 68 65 52 48 42 39 52 48 48 52 52 48 29 23 13 19 23 19 19 13 10 6 6 3 3 3
0 0 0 0 3 3 3 19 23 19 29 45 65 58 55 58 61 55 61 58 58 55 55 58 65 55 39 45 48 42 42 42 35 45 39 29 13 13 13 13 16 13 13 6 10 6 3 6 3
0 0 0 0 0 0 0 13 23 23 32 42 58 74 77 65 68 65 61 58 58 48 55 55 68 55 42 52 42 45 35 32 32 39 39 29 26 10 6 6 3 6 3 3 3 3 6 3 3
0 0 0 0 0 0 0 13 23 26 26 42 55 74 81 74 74 74 65 65 52 55 52 52 55 52 42 45 35 39 32 32 19 19 26 29 19 13 6 6 3 0 3 3 3 3 3 0 0
0 0 0 0 0 0 0 13 23 32 32 55 68 74 77 71 74 77 74 71 55 52 58 55 52 52 42 39 32 32 26 16 16 19 23 19 19 10 10 6 0 0 0 0 0 0 0 0 0
0 0 0 0 0 0 0 10 13 32 42 52 68 77 68 68 74 77 77 74 61 55 55 55 52 52 42 39 39 29 16 16 13 13 19 10 10 13 10 13 3 0 0 0 0 0 0 0 0
0 0 0 0 0 0 3 3 10 29 32 42 68 77 68 74 81 74 74 77 71 65 58 58 52 48 39 32 32 19 13 13 13 13 13 6 13 3 6 3 3 3 0 0 3 0 0 0 0
0 0 0 0 0 0 0 0 3 16 29 45 68 71 71 77 77 81 74 65 74 68 55 52 45 42 35 29 29 23 13 16 16 13 10 13 16 10 6 6 3 3 0 0 3 0 0 0 0
0 0 0 0 0 0 0 0 0 10 29 39 58 61 71 74 74 74 74 65 68 61 58 48 42 45 39 32 29 19 16 10 6 6 10 6 6 6 6 3 3 3 3 3 0 0 0 0 0
0 0 0 0 0 0 0 0 0 10 19 42 45 52 68 71 74 77 77 68 61 65 58 52 42 42 45 35 23 23 16 10 6 6 10 10 6 6 3 6 3 3 3 3 3 0 0 0 0
0 0 0 0 0 0 0 0 3 3 13 26 39 52 61 74 77 81 77 68 68 68 68 55 52 39 39 35 29 23 13 6 6 6 6 10 10 6 6 6 3 3 3 3 3 0 0 0 0
0 0 0 0 0 0 0 0 0 3 16 26 39 48 68 74 74 74 68 68 65 68 68 65 45 39 39 32 26 26 16 6 6 6 6 6 10 10 6 6 3 3 3 3 3 0 3 0 0
0 0 0 0 0 0 0 0 3 3 16 29 52 55 65 71 61 65 74 68 65 61 65 55 52 45 42 32 23 19 16 16 10 6 6 3 3 6 3 3 3 3 3 3 3 3 3 0 0
0 0 0 0 0 0 0 0 6 16 23 32 45 55 58 58 58 68 65 65 65 65 55 52 45 42 42 32 23 23 16 13 13 10 3 10 3 3 3 3 3 3 3 3 3 3 3 0 0
0 0 0 0 0 0 0 0 10 13 23 32 39 55 58 55 58 61 61 61 58 61 52 42 45 45 35 29 23 26 19 16 13 10 10 6 6 10 6 6 6 6 6 6 6 3 3 3 0
0 0 0 0 0 0 0 0 0 16 23 26 32 42 58 55 52 55 58 55 48 48 48 42 35 32 35 23 19 23 23 23 19 16 16 10 10 13 10 6 6 10 6 6 3 3 3 3 3
0 0 0 0 0 0 0 0 3 13 19 23 26 39 45 48 42 45 45 42 42 42 42 39 35 35 26 23 19 19 19 23 23 26 19 16 13 10 10 3 6 10 10 6 6 6 3 6 3
Height
5912 5911 5911 5911 5911 5910 5908 5908 5908 5908 5907 5906 5905 5903 5902 5901 5901 5902 5899 5897 5897 5897 5897 5897 5897 5898 5898 5899 5899 5899 5900 5900 5900 5900 5900 5900 5900 5900 5900 5899 5899 5899 5898 5898 5898 5898 5897 5897 5897
5913 5913 5914 5913 5912 5910 5910 5909 5909 5909 5909 5908 5907 5906 5904 5902 5901 5900 5899 5898 5897 5897 5897 5898 5898 5899 5899 5899 5900 5900 5901 5901 5901 5901 5901 5901 5901 5900 5900 5900 5900 5899 5899 5898 5898 5898 5898 5898 5897
5915 5915 5916 5915 5913 5912 5912 5911 5910 5910 5910 5909 5909 5908 5906 5904 5902 5901 5900 5899 5898 5898 5898 5898 5899 5899 5899 5900 5900 5901 5901 5901 5901 5902 5902 5902 5901 5901 5901 5901 5900 5900 5899 5899 5898 5898 5898 5898 5897
5917 5917 5917 5915 5913 5913 5913 5912 5912 5912 5911 5911 5910 5909 5907 5905 5903 5901 5900 5899 5899 5899 5899 5899 5899 5899 5900 5900 5900 5901 5901 5902 5902 5902 5902 5902 5902 5902 5902 5901 5900 5900 5899 5899 5898 5898 5898 5898 5898
5919 5918 5917 5915 5914 5914 5914 5914 5914 5914 5913 5912 5911 5909 5907 5905 5903 5902 5901 5900 5900 5899 5899 5899 5899 5899 5900 5900 5900 5901 5901 5901 5902 5902 5902 5903 5902 5902 5902 5901 5901 5900 5900 5899 5899 5899 5899 5898 5898
5921 5920 5918 5917 5916 5916 5916 5916 5916 5916 5915 5914 5913 5911 5909 5906 5904 5903 5902 5901 5900 5900 5900 5900 5899 5899 5900 5900 5900 5900 5901 5901 5902 5902 5902 5903 5903 5902 5902 5901 5901 5900 5900 5900 5899 5899 5899 5899 5899
5922 5921 5919 5918 5918 5917 5917 5917 5917 5916 5916 5914 5913 5912 5910 5908 5906 5905 5903 5902 5901 5901 5900 5900 5899 5899 5899 5899 5899 5899 5900 5900 5901 5902 5902 5902 5902 5902 5902 5902 5901 5901 5900 5900 5900 5900 5900 5899 5899
5922 5922 5920 5920 5920 5919 5919 5918 5917 5917 5916 5915 5913 5912 5911 5909 5907 5905 5904 5903 5902 5901 5900 5899 5898 5898 5898 5898 5898 5899 5899 5899 5900 5901 5901 5902 5902 5902 5902 5902 5901 5901 5900 5900 5900 5900 5900 5900 5899
5922 5923 5921 5921 5921 5920 5920 5919 5918 5918 5917 5916 5914 5913 5911 5909 5908 5906 5905 5904 5902 5901 5900 5899 5898 5897 5896 5896 5897 5897 5898 5898 5899 5900 5901 5901 5902 5902 5902 5902 5901 5901 5901 5900 5900 5900 5900 5900 5899
5923 5923 5922 5922 5921 5921 5920 5920 5919 5918 5917 5916 5915 5913 5911 5909 5909 5907 5906 5904 5903 5901 5899 5898 5897 5896 5895 5895 5895 5896 5896 5897 5898 5899 5899 5900 5901 5901 5902 5902 5901 5901 5901 5900 5900 5900 5900 5900 5900
5923 5923 5923 5922 5922 5921 5921 5920 5919 5918 5918 5917 5915 5913 5911 5910 5909 5908 5906 5904 5903 5901 5899 5898 5897 5895 5894 5894 5894 5894 5895 5896 5897 5897 5898 5899 5900 5901 5901 5901 5901 5901 5901 5901 5900 5900 5900 5900 5900
5923 5923 5922 5922 5922 5922 5921 5921 5919 5919 5919 5918 5916 5914 5912 5910 5908 5907 5906 5904 5902 5900 5899 5897 5896 5894 5893 5892 5892 5893 5894 5895 5895 5896 5897 5898 5899 5900 5901 5901 5901 5901 5901 5901 5901 5901 5901 5900 5900
5923 5923 5922 5921 5921 5921 5921 5921 5920 5919 5918 5917 5915 5913 5912 5910 5908 5907 5905 5904 5902 5901 5899 5897 5895 5894 5892 5891 5890 5891 5892 5893 5894 5894 5896 5897 5898 5899 5900 5901 5901 5901 5901 5901 5901 5901 5901 5900 5900
5923 5922 5922 5921 5921 5921 5921 5920 5919 5919 5917 5916 5915 5913 5911 5910 5908 5906 5904 5903 5902 5900 5898 5897 5894 5893 5891 5890 5889 5889 5890 5891 5892 5893 5894 5896 5897 5898 5899 5900 5901 5901 5901 5901 5901 5901 5901 5900 5900
5922 5922 5922 5921 5921 5920 5920 5920 5919 5918 5916 5915 5914 5913 5911 5910 5908 5905 5904 5902 5900 5899 5897 5895 5893 5891 5890 5888 5888 5888 5889 5890 5891 5892 5893 5895 5896 5897 5899 5900 5900 5901 5901 5901 5901 5901 5901 5901 5900
5921 5921 5921 5921 5920 5920 5920 5919 5918 5916 5915 5914 5914 5912 5911 5909 5907 5905 5903 5901 5899 5897 5895 5894 5892 5890 5888 5887 5886 5886 5887 5888 5889 5891 5892 5894 5895 5896 5897 5899 5900 5900 5901 5901 5901 5901 5901 5901 5901
5920 5919 5919 5919 5919 5918 5918 5918 5917 5916 5915 5914 5913 5911 5909 5907 5906 5904 5901 5900 5898 5896 5894 5892 5890 5888 5887 5886 5885 5885 5885 5886 5888 5889 5891 5892 5894 5895 5896 5898 5899 5900 5900 5901 5901 5901 5901 5901 5901
5918 5917 5917 5916 5917 5917 5917 5917 5916 5914 5913 5913 5912 5911 5909 5907 5905 5903 5901 5899 5897 5895 5893 5891 5889 5887 5886 5884 5884 5884 5884 5885 5886 5888 5890 5891 5893 5894 5895 5897 5898 5899 5900 5900 5901 5901 5901 5901 5901
5915 5915 5915 5914 5915 5915 5915 5915 5914 5913 5912 5912 5911 5910 5908 5906 5904 5902 5901 5899 5896 5894 5892 5890 5888 5887 5885 5884 5884 5884 5884 5884 5885 5886 5888 5889 5891 5892 5894 5896 5897 5898 5899 5900 5900 5901 5901 5901 5901
5912 5913 5913 5913 5913 5914 5913 5914 5913 5912 5911 5910 5910 5909 5907 5906 5903 5901 5899 5897 5895 5893 5891 5889 5887 5886 5884 5883 5883 5883 5883 5883 5884 5885 5886 5888 5889 5891 5892 5894 5896 5897 5898 5899 5900 5900 5901 5901 5901
5909 5911 5911 5912 5912 5911 5912 5912 5911 5910 5909 5909 5909 5908 5906 5904 5903 5900 5898 5896 5894 5892 5889 5887 5886 5885 5883 5882 5881 5881 5881 5881 5882 5883 5884 5886 5887 5889 5891 5892 5894 5895 5896 5897 5898 5899 5900 5900 5900
5906 5907 5908 5909 5909 5909 5910 5909 5909 5908 5907 5907 5907 5906 5905 5903 5901 5899 5896 5895 5892 5890 5888 5887 5885 5884 5883 5882 5881 5880 5880 5880 5881 5881 5882 5884 5885 5887 5889 5890 5892 5893 5895 5896 5897 5898 5898 5899 5899
5903 5904 5905 5905 5906 5906 5907 5906 5907 5905 5905 5905 5905 5904 5903 5902 5899 5897 5895 5893 5891 5889 5887 5886 5884 5883 5882 5881 5880 5879 5879 5879 5879 5880 5880 5882 5883 5885 5887 5888 5890 5891 5893 5894 5895 5896 5897 5898 5898
5898 5900 5901 5901 5902 5904 5904 5903 5903 5902 5902 5903 5903 5902 5901 5899 5897 5895 5893 5892 5890 5888 5886 5885 5883 5882 5881 5879 5879 5878 5878 5877 5878 5878 5879 5880 5881 5883 5884 5886 5888 5889 5890 5892 5893 5894 5895 5896 5896
5894 5896 5897 5898 5899 5901 5900 5899 5900 5900 5899 5900 5900 5900 5899 5897 5895 5894 5892 5890 5888 5887 5885 5884 5882 5881 5879 5878 5877 5876 5876 5876 5876 5877 5877 5878 5879 5880 5882 5883 5885 5886 5887 5889 5891 5892 5892 5893 5894
5889 5891 5894 5895 5896 5896 5896 5895 5897 5897 5897 5896 5897 5897 5896 5895 5893 5892 5890 5889 5887 5886 5884 5883 5881 5880 5878 5877 5875 5875 5874 5874 5874 5875 5875 5875 5877 5878 5879 5881 5882 5883 5885 5886 5888 5888 5889 5890 5891
5884 5886 5889 5890 5891 5891 5892 5892 5893 5893 5893 5893 5893 5893 5893 5892 5891 5890 5888 5887 5886 5885 5883 5882 5880 5879 5877 5876 5874 5873 5873 5872 5872 5872 5873 5873 5874 5875 5877 5878 5879 5880 5881 5883 5884 5885 5885 5886 5887
5880 5882 5883 5884 5886 5886 5888 5889 5889 5889 5889 5891 5891 5891 5891 5890 5889 5887 5886 5885 5884 5883 5882 5880 5879 5878 5876 5875 5873 5873 5872 5871 5871 5871 5871 5871 5872 5873 5874 5875 5876 5877 5878 5879 5879 5881 5881 5882 5883
5875 5877 5878 5880 5881 5883 5884 5887 5886 5887 5887 5887 5888 5888 5888 5887 5886 5884 5884 5883 5882 5881 5880 5878 5877 5876 5875 5874 5873 5872 5871 5870 5869 5869 5869 5869 5870 5870 5871 5872 5873 5874 5875 5875 5875 5876 5877 5878 5878
5869 5871 5874 5876 5877 5878 5879 5884 5883 5883 5884 5884 5885 5885 5885 5884 5883 5882 5882 5881 5880 5878 5877 5876 5876 5875 5874 5872 5871 5870 5869 5868 5868 5867 5868 5868 5868 5868 5868 5869 5870 5870 5871 5871 5871 5872 5872 5873 5873
Wind_Speed
15 15 15 15 16 17 19 19 18 16 16 16 15 13 13 11 10 9 7 5 4 4 3 3 2 2 2 1 1 1 1 2 2 2 3 3 3 2 1 1 1 1 1 0 1 1 1 1 2
14 14 15 16 16 17 19 18 17 17 16 16 15 14 12 11 10 9 7 6 5 4 3 2 2 1 1 0 0 1 2 2 2 2 3 3 3 3 3 2 2 2 2 1 0 0 1 1 2
12 13 13 15 17 17 17 17 18 18 17 16 15 14 12 11 11 9 8 8 7 5 4 2 1 1 1 1 1 1 2 3 3 3 3 3 3 3 3 3 3 3 3 2 1 0 1 1 2
9 11 13 13 16 16 15 16 18 17 16 16 15 14 13 13 12 10 9 8 7 6 4 2 1 1 1 2 2 3 2 3 3 3 3 3 4 4 4 4 4 4 3 3 1 1 1 1 1
9 9 11 13 15 14 15 16 17 17 17 16 14 14 14 14 13 11 10 8 8 6 5 3 1 1 2 2 3 3 3 4 4 4 3 4 4 4 4 4 4 4 4 3 1 1 0 0 1
9 9 11 12 13 12 12 14 17 17 16 15 15 15 15 14 12 11 10 9 8 7 5 4 2 1 2 3 4 3 3 3 4 4 4 4 4 4 4 4 4 4 3 2 1 1 0 0 1
8 8 10 11 11 9 9 11 15 16 16 15 15 15 14 13 11 10 9 9 8 6 5 5 3 2 2 3 4 4 4 4 4 4 4 4 4 4 4 4 4 3 3 2 1 1 0 0 1
6 7 8 9 8 8 9 11 14 15 16 16 16 16 15 13 11 10 10 9 8 7 6 6 5 4 4 4 4 5 5 5 5 5 5 5 4 4 3 4 3 3 3 2 2 1 0 0 1
6 7 7 6 6 7 9 11 13 15 16 16 16 16 15 14 12 11 10 9 8 8 7 7 6 5 4 4 4 5 5 6 6 6 5 5 4 4 3 3 3 3 3 2 1 1 1 1 1
5 4 5 4 4 5 7 9 12 14 15 15 15 15 15 14 13 11 10 9 9 9 7 7 8 7 6 4 5 6 5 5 6 6 6 5 4 3 3 3 3 3 2 2 1 0 0 1 2
2 2 2 2 3 4 6 8 10 12 13 14 15 14 14 14 13 12 11 10 10 10 9 9 9 9 7 5 4 6 6 6 6 5 6 5 5 4 4 3 3 2 2 1 1 0 1 1 2
4 1 1 1 2 4 6 8 9 10 11 12 13 14 14 14 13 12 12 11 11 11 11 10 10 10 8 5 4 5 7 7 7 7 6 6 6 5 4 4 3 2 1 1 1 1 1 1 1
5 3 2 0 1 2 4 6 8 9 10 12 12 13 14 14 14 13 12 12 12 11 11 10 10 10 9 6 5 5 6 7 7 7 8 7 6 5 4 4 3 2 1 1 1 0 1 1 1
4 3 1 1 2 3 5 6 8 10 11 12 12 13 14 14 14 13 13 13 12 12 11 11 11 10 10 6 4 4 5 6 7 8 8 8 7 6 5 4 3 2 2 2 1 1 0 1 1
3 2 1 1 2 4 6 8 10 11 12 13 13 14 13 13 13 13 13 13 13 12 13 12 12 12 10 7 4 4 4 5 6 7 8 8 8 7 5 5 4 3 3 2 1 1 1 0 1
4 4 2 1 2 5 7 10 12 12 13 14 13 14 14 13 14 14 13 14 13 13 13 13 12 12 11 8 4 3 4 5 6 8 8 8 9 8 7 6 5 5 4 3 2 2 1 1 1
7 6 4 2 1 4 7 11 13 13 14 14 14 15 14 15 15 15 14 14 14 14 13 13 13 12 10 7 4 3 4 6 7 8 8 9 9 9 8 7 6 6 5 4 3 2 2 1 1
9 8 6 3 3 5 7 12 13 13 14 14 15 16 16 16 15 15 14 14 14 14 13 13 13 12 9 6 4 2 3 6 7 8 9 10 10 10 9 7 7 6 6 5 4 3 3 2 2
13 11 7 4 4 7 10 13 13 13 13 14 15 17 16 16 16 15 14 14 13 13 12 12 12 10 8 5 3 3 3 5 7 8 10 10 10 10 10 9 8 8 7 6 5 4 4 3 2
14 12 9 7 7 9 11 12 12 13 13 14 15 16 17 16 15 14 14 13 13 12 12 12 11 9 7 5 2 2 3 5 7 8 10 10 10 10 10 10 10 10 9 8 6 6 5 4 3
14 12 11 12 12 13 13 12 13 12 13 14 15 15 16 16 16 14 13 12 12 12 12 11 10 8 7 5 3 2 3 4 6 8 10 11 10 11 11 11 10 11 10 9 8 7 6 5 5
15 13 13 15 16 16 16 15 13 12 13 14 14 14 15 16 15 13 12 11 11 12 11 10 9 7 6 6 4 3 4 4 5 8 9 10 11 12 12 11 11 11 11 10 9 9 8 7 6
16 15 15 16 17 17 17 18 15 14 14 14 13 13 15 15 14 12 11 11 11 11 10 9 8 7 7 6 5 4 4 4 5 7 9 10 10 12 13 13 12 12 12 11 11 10 9 9 8
18 17 17 17 16 15 14 17 16 15 15 14 14 13 15 15 15 13 11 10 10 10 10 9 8 7 7 6 6 5 4 4 5 7 9 10 11 12 13 13 13 13 13 13 12 11 11 10 10
20 19 19 18 15 11 12 15 14 14 15 15 14 13 15 15 14 14 12 11 9 9 9 8 7 8 7 6 6 5 5 5 6 7 9 11 12 13 13 14 14 14 14 14 14 13 12 12 12
20 20 19 18 15 14 14 14 12 11 13 14 14 13 14 15 14 13 12 11 9 9 9 8 7 7 7 6 5 5 5 6 6 7 8 11 12 13 13 14 14 14 15 15 15 15 15 14 14
21 20 19 19 18 18 17 15 13 12 12 12 13 12 12 13 13 12 11 10 9 9 8 8 8 7 7 6 5 5 4 5 6 7 8 10 12 13 13 14 14 15 16 16 17 16 16 17 17
20 19 21 21 20 20 19 17 14 13 14 14 14 12 12 13 12 11 11 10 9 9 8 8 8 7 7 7 7 6 5 5 6 6 7 9 11 13 13 14 14 15 16 16 17 17 17 17 18
21 21 22 22 22 22 21 18 17 15 16 15 14 13 13 13 12 11 10 9 9 9 8 8 8 7 7 8 7 7 6 6 6 6 7 8 9 10 12 13 15 16 16 16 17 18 19 19 19
22 21 21 23 22 23 24 21 19 18 17 16 16 15 14 12 12 12 10 10 9 9 9 9 9 8 8 8 8 7 7 6 6 6 7 8 10 11 12 13 14 14 16 17 18 19 20 20 20
Wind_Direction
94 91 84 77 66 61 56 47 37 40 43 41 37 34 32 31 35 39 39 48 64 76 89 106 122 127 120 100 41 346 339 337 330 325 322 319 322 318 316 325 330 328 313 308 67 71 78 97 114
93 90 85 74 66 60 53 41 30 34 42 40 35 34 37 32 34 36 38 43 53 63 80 108 125 129 136 142 308 285 301 312 311 312 314 311 312 311 305 304 309 312 313 307 296 63 128 121 116
92 89 85 75 67 60 51 37 25 25 35 34 31 32 32 36 39 39 39 41 47 57 71 94 122 149 213 250 261 262 285 288 290 295 301 307 310 311 308 305 306 309 309 305 293 255 160 140 119
92 90 91 78 67 58 45 33 21 22 28 31 30 30 30 34 37 37 37 39 44 49 53 59 101 186 220 236 246 258 267 270 278 284 290 299 302 305 307 305 307 307 306 303 292 275 183 143 133
89 93 92 80 69 56 38 26 14 17 19 26 29 29 30 34 36 36 36 39 42 43 38 28 14 241 229 228 235 251 256 270 270 275 286 295 300 306 309 308 309 306 303 300 299 309 237 169 164
92 85 87 80 67 56 38 20 7 9 12 22 27 30 32 35 37 37 38 38 38 37 32 26 21 306 256 243 242 247 252 262 269 271 282 293 298 304 311 315 317 314 307 306 315 320 317 168 180
97 90 84 77 64 54 32 13 3 7 11 16 20 24 29 32 35 35 38 36 33 29 20 12 360 304 276 264 253 243 244 253 260 266 275 287 294 300 311 317 318 318 308 304 308 311 314 191 184
105 86 88 81 62 41 12 0 358 1 4 11 15 18 24 30 33 32 33 32 29 26 13 2 358 331 283 262 251 243 244 247 248 254 264 269 278 290 305 316 318 318 311 308 307 311 315 149 152
114 95 77 65 49 28 1 351 350 354 359 5 10 12 18 23 30 29 27 27 24 18 9 2 358 349 323 267 247 241 241 243 246 246 250 257 266 281 289 307 309 306 304 311 327 0 83 114 135
129 98 75 49 21 6 345 342 342 347 354 359 2 7 13 18 26 28 24 23 22 14 6 9 3 353 334 305 255 238 233 236 244 242 237 245 255 266 274 285 297 298 300 306 317 28 91 117 134
168 104 90 63 347 331 325 327 335 340 347 352 356 2 7 12 21 25 24 20 17 15 9 1 1 358 345 315 270 243 232 232 236 238 236 236 240 252 264 265 277 287 298 292 265 129 111 126 136
213 198 137 76 321 312 314 316 323 330 338 347 349 355 2 6 10 16 19 19 15 11 6 1 -0 355 349 323 285 251 237 234 238 236 234 235 236 242 249 256 269 257 261 255 212 145 115 108 110
234 231 209 165 350 332 328 329 325 327 337 344 348 351 357 2 2 8 10 13 13 8 3 355 353 357 355 336 290 258 240 234 234 229 228 227 223 227 231 239 249 230 220 216 215 127 105 85 72
245 239 190 85 23 357 342 345 334 332 335 345 347 348 350 358 357 359 1 3 5 3 360 355 350 352 351 345 309 262 240 231 230 220 217 216 216 215 210 216 220 216 199 191 211 155 95 93 85
227 224 196 76 30 356 347 340 330 336 338 344 345 346 349 352 351 353 354 356 359 358 356 353 351 350 350 343 321 273 249 234 223 213 211 207 207 204 202 201 201 198 189 177 185 195 183 132 125
208 199 182 144 9 355 341 336 334 337 342 345 344 344 346 348 347 346 347 349 353 353 350 350 349 349 348 348 338 299 251 216 211 204 205 203 201 202 203 199 196 189 186 183 184 190 189 171 157
208 210 208 200 292 325 328 329 330 330 334 342 344 345 345 346 344 342 341 342 344 347 348 346 348 346 342 338 325 284 230 213 208 207 204 203 202 202 201 199 196 189 192 193 190 189 188 178 166
219 221 232 250 283 307 315 319 318 318 325 334 340 342 344 343 340 337 336 336 338 342 345 346 348 348 342 331 311 261 233 218 210 208 207 205 204 203 201 201 200 196 198 200 200 197 192 184 174
230 231 231 244 280 295 302 307 307 310 317 327 335 338 341 338 334 331 331 332 334 339 341 342 344 347 348 340 299 268 248 219 211 210 209 205 204 203 205 207 206 203 203 207 207 205 206 200 195
235 233 226 232 254 266 281 290 293 299 308 318 327 333 336 332 331 326 326 328 334 338 339 338 340 340 340 346 320 262 248 234 225 214 208 206 205 203 201 205 208 208 208 211 212 212 213 215 211
233 236 230 227 239 254 264 275 283 289 299 308 316 325 327 325 325 321 322 328 336 338 339 337 336 337 339 336 325 275 264 238 223 212 209 208 211 209 205 207 210 210 211 213 215 216 218 221 219
231 236 236 232 235 243 261 267 271 281 291 301 309 317 323 325 323 322 322 327 335 337 335 335 333 334 336 332 318 295 276 253 222 212 208 211 217 216 211 211 215 216 217 218 220 221 223 226 227
232 236 242 241 244 248 258 266 268 273 281 295 303 312 320 324 326 325 325 325 331 335 332 326 323 324 326 324 316 297 275 254 231 214 207 212 220 219 216 216 219 221 221 223 226 226 229 231 233
234 238 244 248 252 255 258 262 264 270 282 292 301 310 320 326 327 327 323 322 326 331 332 326 321 324 323 315 306 296 278 253 244 230 221 218 217 219 221 221 222 223 223 226 229 232 234 236 239
237 240 245 249 251 247 248 256 266 270 278 287 294 306 317 324 326 325 322 322 323 330 334 328 326 326 324 317 305 293 271 257 251 241 231 227 223 223 222 223 224 225 227 228 232 236 240 242 244
241 242 245 249 243 234 240 252 263 271 280 286 292 302 315 318 320 318 318 320 324 329 333 330 326 325 324 318 311 295 269 261 249 242 239 232 226 225 225 228 228 231 231 234 237 242 247 247 249
239 242 244 244 239 238 241 250 263 277 288 299 300 300 309 314 317 315 314 316 318 321 324 328 325 321 323 323 320 314 295 271 258 250 243 234 229 230 232 232 232 233 235 238 241 244 248 251 253
234 238 239 239 238 241 245 253 265 277 286 300 304 299 304 310 317 315 310 308 311 315 317 320 324 324 323 325 325 321 306 283 272 260 253 243 237 234 234 235 236 238 240 245 247 247 252 256 258
230 235 239 240 239 241 243 250 261 271 279 289 293 296 305 311 316 311 306 305 308 311 313 317 318 319 320 322 321 320 312 294 275 266 260 251 244 241 241 241 240 243 246 250 251 251 255 260 262
227 233 239 242 243 243 245 246 253 264 268 279 290 294 295 308 314 311 304 302 305 307 308 309 313 310 312 315 315 311 308 301 286 272 267 260 253 251 251 248 246 248 251 254 254 254 258 261 262